Probability
3 1 0 0 0 0 0 0 0 0 1 2 2 2 2 1 0 0 0 2 5 6 6 4 3 2 1 0 0 0 0 0 0 0 0 0 0 0 0 0 0 0 0 0 0 0 0 0 0
1 0 0 0 0 0 0 0 0 0 2 3 3 1 1 2 2 1 1 3 6 7 6 5 4 3 1 0 0 0 0 0 0 0 0 0 0 0 0 0 0 0 0 0 0 0 0 0 0
0 0 0 0 0 0 0 0 1 3 5 7 5 2 1 4 7 5 5 8 9 8 6 6 7 6 3 1 0 0 0 0 0 0 0 0 0 0 0 0 0 0 0 0 0 0 0 0 0
0 0 0 0 0 0 0 0 2 8 11 11 8 3 1 7 14 14 14 14 13 10 7 7 8 8 4 2 0 0 0 0 0 0 0 0 0 0 0 0 0 0 0 0 0 0 0 0 0
0 0 0 0 0 0 0 0 4 12 16 15 12 7 3 11 24 26 21 18 15 12 8 7 9 8 5 2 0 0 0 0 0 0 0 0 0 0 0 0 0 0 0 0 0 0 0 0 0
0 0 0 0 0 0 0 0 5 15 20 19 16 11 7 15 28 29 22 17 16 15 11 8 9 8 5 2 0 0 0 0 0 0 0 0 0 0 0 0 0 0 0 0 0 0 0 0 0
0 0 0 0 0 0 0 0 5 16 21 20 18 13 10 18 26 25 19 16 17 17 15 10 7 7 5 2 1 0 0 0 0 0 0 0 0 0 0 0 0 0 0 0 0 0 0 0 0
0 0 0 0 0 0 0 0 5 15 21 19 17 14 18 27 32 27 20 18 18 17 15 11 7 6 3 2 1 1 0 0 0 0 0 0 0 0 0 0 0 0 0 0 0 0 0 0 0
0 0 0 0 0 0 0 1 7 18 24 24 22 24 34 43 42 35 28 24 22 19 16 13 10 7 5 3 2 2 1 1 0 0 0 0 0 0 0 0 0 0 0 0 0 0 0 0 0
0 0 0 0 0 0 0 1 8 20 30 34 37 42 50 54 50 44 36 30 28 24 19 16 13 10 9 7 5 4 3 2 1 0 0 0 0 0 0 0 0 0 0 0 0 0 0 0 0
0 0 0 0 0 0 0 1 9 21 32 41 49 53 55 56 54 50 43 36 33 28 22 18 14 10 10 9 7 6 5 4 2 1 0 0 0 0 0 0 0 0 0 0 0 0 0 0 0
0 0 0 0 0 0 0 1 6 16 28 40 50 52 52 55 57 54 49 44 38 31 24 19 14 10 9 8 7 6 6 4 2 1 0 0 0 0 0 0 0 0 0 0 0 0 0 0 0
0 0 0 0 0 0 0 0 4 12 25 39 50 50 49 55 60 57 53 50 44 36 27 20 14 10 8 6 6 5 4 3 1 0 0 0 0 0 0 0 0 0 0 0 0 0 0 0 0
0 0 0 0 0 0 0 1 5 16 30 43 49 48 47 54 61 61 59 55 47 39 31 23 15 10 7 6 6 5 3 2 1 0 0 0 0 0 0 0 0 0 0 0 0 0 0 0 0
0 0 0 0 0 0 1 2 9 22 36 45 47 45 46 51 58 64 64 59 51 44 36 27 19 13 10 8 6 5 4 2 0 0 0 0 0 0 0 0 0 0 0 0 0 0 0 0 0
0 0 0 0 0 0 1 2 10 23 34 40 42 44 48 51 55 62 65 63 58 51 42 34 26 19 14 10 7 5 4 2 1 0 0 0 0 0 0 0 0 0 0 0 0 0 0 0 0
0 0 0 0 0 0 0 1 8 20 28 32 36 43 50 54 55 58 63 65 63 56 47 40 35 28 20 15 11 7 5 3 2 1 0 0 0 0 0 0 0 0 0 0 0 0 0 0 0
0 0 0 0 0 0 0 1 6 16 22 26 31 40 51 55 55 57 62 66 65 58 50 45 42 35 25 19 16 13 8 6 6 5 3 2 1 0 0 0 0 0 0 0 0 0 0 0 0
0 0 0 0 0 0 0 2 7 13 19 24 29 37 49 55 55 58 63 67 65 59 52 49 46 40 31 23 21 19 15 12 12 11 8 5 3 2 0 0 0 0 0 0 0 0 0 0 0
0 0 0 0 0 0 1 3 7 12 15 20 25 34 45 51 56 61 64 65 64 59 54 49 47 44 36 29 25 23 20 17 14 13 12 9 6 4 1 0 0 0 0 0 0 0 0 0 0
0 0 0 0 0 0 1 2 4 8 10 14 20 28 38 47 53 58 60 60 57 53 50 46 44 44 40 33 29 26 22 17 14 13 13 11 8 5 2 0 0 0 0 0 0 0 0 0 0
0 0 0 0 0 0 1 1 2 4 7 10 16 24 33 41 46 48 50 51 49 44 42 41 41 42 41 35 30 27 23 18 15 14 13 10 8 5 2 1 0 0 0 0 0 0 0 0 0
0 0 0 0 0 0 0 0 0 2 5 10 15 21 28 35 37 37 39 42 43 41 38 37 38 39 39 36 31 25 22 19 18 16 13 9 7 5 4 2 1 0 0 0 0 0 0 0 0
0 0 0 0 0 0 0 0 0 1 5 10 15 19 23 28 30 30 31 34 36 37 36 34 33 33 33 32 28 22 19 20 22 20 14 9 7 6 4 3 1 0 0 0 0 0 0 0 0
0 0 0 0 0 0 0 0 0 1 4 10 14 16 20 22 24 26 26 27 29 31 32 30 28 26 25 25 21 16 15 17 20 20 15 10 9 8 6 4 2 1 0 0 0 0 0 0 0
0 0 0 0 0 0 0 0 0 1 5 9 11 12 14 16 19 21 23 23 23 24 26 26 24 21 19 18 15 12 10 11 13 15 14 11 9 8 6 5 4 1 0 0 0 0 0 0 0
0 0 0 0 0 0 0 0 0 1 5 8 9 10 11 11 13 16 18 18 17 18 21 23 20 16 13 12 11 10 8 7 8 11 11 8 7 6 5 5 4 2 0 0 0 0 0 0 0
0 0 0 0 0 0 0 0 0 1 3 5 7 9 10 9 10 11 12 14 15 16 18 18 15 11 8 8 7 7 6 5 5 8 8 5 3 3 3 4 3 1 0 0 0 0 0 0 0
0 0 0 0 0 0 0 0 0 1 2 3 5 8 9 8 7 9 10 13 15 15 15 14 11 7 5 4 4 4 3 3 3 4 4 2 1 2 3 3 3 1 0 0 0 0 0 0 0
0 0 0 0 0 0 0 0 0 1 2 3 4 6 7 5 6 9 10 13 15 14 13 12 9 6 2 2 2 1 1 1 1 2 1 1 1 2 2 3 3 2 1 0 0 0 0 0 0
Wind_Speed
6 4 2 1 3 3 3 3 3 2 3 4 8 9 8 5 4 5 7 16 20 18 15 18 20 20 19 19 18 18 17 17 16 16 16 16 16 16 16 16 16 16 15 15 15 15 15 15 15
3 4 1 2 3 1 4 3 3 4 8 10 10 10 8 7 8 10 10 17 21 18 14 16 21 20 20 19 18 17 17 17 16 16 16 16 16 16 16 16 15 15 15 14 14 14 14 14 14
3 3 1 2 1 4 4 2 4 6 10 10 8 6 6 7 9 7 12 20 18 15 12 16 22 21 20 19 18 17 17 16 16 16 16 15 15 15 15 15 15 15 14 14 14 13 13 13 12
1 2 2 1 5 7 6 6 4 8 8 9 10 7 4 6 8 14 21 20 18 14 12 16 22 21 20 19 18 17 17 16 16 16 15 15 15 15 15 15 15 14 14 13 13 12 12 11 11
2 3 1 2 6 7 6 5 6 9 6 8 11 8 4 5 18 23 21 20 19 14 12 15 21 21 20 19 18 18 17 17 16 16 15 15 15 15 15 15 14 14 13 12 12 11 11 10 10
2 2 1 4 6 6 6 4 6 9 10 10 11 8 4 10 20 20 20 18 17 16 13 14 21 21 20 19 18 18 17 17 16 16 16 15 15 15 15 14 14 13 13 12 11 10 9 9 9
3 2 3 4 6 6 4 4 8 10 10 8 10 8 6 10 15 18 17 16 15 15 13 11 12 15 19 19 18 18 17 17 16 16 16 15 15 15 14 14 13 13 12 11 10 9 8 8 7
4 2 3 4 5 6 3 3 8 12 9 10 8 11 11 14 16 17 16 15 14 13 12 11 10 9 10 12 18 18 18 17 16 16 16 16 15 14 14 12 12 12 11 10 9 8 7 6 6
2 1 4 5 4 5 3 3 3 7 10 7 5 8 17 21 20 18 15 14 13 13 11 11 10 9 9 9 14 15 16 16 15 13 16 13 7 7 8 10 12 11 10 9 8 6 5 5 5
5 4 9 7 5 5 4 2 5 6 9 7 8 12 21 22 21 21 20 19 17 16 13 11 12 11 10 10 8 6 7 7 6 5 7 5 5 4 7 10 12 11 9 8 7 5 4 3 2
6 8 9 9 10 7 5 3 3 10 6 12 18 21 21 21 20 20 20 19 19 18 16 13 13 12 10 7 7 4 4 4 5 6 6 5 4 3 4 3 5 4 5 3 3 2 1 1 1
5 10 10 11 10 6 6 3 3 8 11 15 21 24 21 22 20 20 20 18 17 18 17 15 14 12 10 8 7 6 5 5 4 5 6 5 3 4 3 2 3 2 1 2 1 1 1 1 2
9 12 13 14 11 8 5 4 5 5 10 16 19 20 19 19 17 16 16 17 17 17 17 17 15 14 12 10 8 8 7 6 6 5 6 6 5 5 4 3 2 2 2 2 2 1 2 2 2
7 8 10 10 8 6 4 2 4 5 13 18 19 18 17 17 16 15 16 16 18 18 17 16 16 14 13 10 8 8 7 6 6 6 7 7 6 5 5 4 3 3 3 2 2 2 2 2 2
5 7 10 8 5 5 1 3 2 8 14 17 18 17 17 15 15 17 19 19 19 18 17 16 15 14 14 12 10 9 7 7 7 6 7 7 7 6 5 4 4 3 3 3 2 2 2 2 2
5 4 5 8 4 5 2 5 4 9 14 14 14 15 14 13 15 15 16 15 15 15 16 16 15 15 14 11 9 8 7 7 7 6 6 8 8 7 5 4 3 3 3 3 3 2 2 2 2
3 3 5 8 5 3 3 5 4 7 11 12 12 13 12 11 11 12 14 15 15 15 16 15 13 15 13 10 8 8 7 7 6 6 6 7 8 8 6 4 4 4 3 3 3 2 2 2 2
5 4 5 7 6 2 3 5 5 8 10 10 10 11 12 13 13 13 13 14 14 14 14 14 13 14 12 9 7 6 7 6 6 6 7 8 6 7 6 4 5 5 4 3 2 3 2 2 2
5 7 10 12 9 3 4 5 5 6 8 8 7 8 10 11 10 11 12 13 13 12 12 13 13 13 11 9 8 8 7 6 6 6 8 8 7 7 6 5 4 4 4 4 4 3 2 1 1
9 10 11 11 9 2 2 2 2 3 5 7 8 9 10 8 7 9 11 12 13 14 14 13 13 13 13 10 8 6 7 5 6 6 7 8 8 7 7 6 5 5 4 4 4 3 3 1 2
10 10 10 9 6 3 3 3 2 1 2 4 7 8 10 13 13 11 11 11 13 14 15 14 14 13 12 11 7 6 5 4 4 5 6 7 8 7 6 7 6 5 5 4 4 4 5 3 1
10 11 9 6 1 2 2 2 5 2 1 3 5 6 8 11 12 11 11 10 12 12 11 12 13 12 11 12 11 12 9 8 7 6 6 7 7 7 7 7 6 6 4 5 5 4 3 4 2
11 9 5 3 2 1 3 2 6 2 1 3 2 4 6 8 10 11 11 11 10 10 10 10 11 11 11 12 12 12 8 6 5 6 7 7 6 7 7 7 6 6 5 5 5 4 4 3 4
8 2 3 5 5 1 3 2 5 3 5 4 2 3 5 7 8 7 7 7 7 8 9 10 11 11 11 12 12 11 11 10 10 9 9 7 5 5 7 7 6 6 5 5 5 4 5 4 3
3 4 3 4 4 4 3 2 6 6 4 4 4 5 5 6 7 7 7 7 7 8 8 9 11 10 11 11 11 11 11 12 13 10 9 8 6 4 7 7 6 5 5 5 5 5 5 4 4
4 9 8 5 4 3 2 2 6 6 4 1 3 4 5 5 7 8 7 7 7 8 8 9 10 9 10 11 11 10 10 8 7 9 8 8 6 6 7 7 7 6 6 6 5 4 4 4 4
4 4 8 8 3 1 2 4 5 3 4 3 2 3 2 3 5 6 7 6 6 6 7 9 10 10 10 10 10 9 10 9 9 9 8 6 6 6 8 8 7 7 6 6 6 4 4 4 4
8 8 6 7 5 2 3 3 4 5 2 1 3 2 1 1 4 5 6 6 6 6 5 6 8 9 8 9 9 10 9 9 9 9 9 8 7 7 8 8 7 7 6 6 5 4 4 4 4
3 3 6 5 6 7 3 6 5 6 3 2 2 1 1 1 3 5 5 5 5 5 6 6 6 7 7 8 8 8 8 9 8 8 9 8 7 8 8 8 8 7 6 6 5 5 5 5 4
6 6 8 6 4 5 5 6 4 4 3 3 3 3 2 2 3 4 5 5 5 5 5 6 6 6 6 7 7 8 8 8 8 8 8 8 8 8 8 8 8 8 7 7 7 7 6 6 6
Wind_Direction
185 189 185 87 48 36 287 249 174 124 75 83 92 96 97 92 128 137 129 139 137 142 146 144 141 137 133 130 128 124 122 120 118 117 116 116 115 115 114 113 112 112 112 111 111 111 111 112 113
178 193 152 55 76 4 278 240 169 150 133 113 91 86 78 69 85 105 122 140 138 141 143 144 142 139 136 134 132 129 127 125 124 122 121 121 120 119 117 116 116 115 114 113 113 113 113 114 114
220 199 117 82 164 207 248 252 168 142 129 115 102 77 80 109 115 116 137 138 136 138 141 147 143 141 139 137 135 133 131 130 129 127 125 124 122 121 120 120 120 118 117 117 116 115 114 113 113
160 73 50 97 247 241 237 256 174 132 112 103 105 80 71 126 128 130 136 138 136 138 141 147 144 142 141 140 138 136 135 134 133 131 129 127 126 124 124 123 121 120 119 119 119 117 115 113 111
95 87 51 281 258 262 249 230 175 139 129 115 102 97 57 69 119 131 139 141 139 140 143 147 146 145 144 143 142 141 139 137 136 135 133 130 128 127 127 125 124 123 123 122 122 119 117 113 109
64 89 115 262 269 278 267 196 136 123 121 117 110 109 85 122 129 139 142 142 142 142 144 147 148 147 147 147 146 145 143 141 140 139 136 134 132 131 129 128 128 127 127 127 125 122 118 111 105
141 142 223 248 277 288 249 174 144 136 136 141 127 108 118 142 140 140 140 139 140 143 144 146 149 150 151 150 149 149 147 145 144 143 141 139 136 134 133 133 132 132 132 131 130 126 120 112 105
168 120 269 265 267 272 236 171 150 140 133 131 128 133 154 161 144 137 136 137 141 145 148 146 147 147 150 152 153 152 151 150 148 147 145 143 141 139 138 137 138 138 137 135 134 132 126 115 105
153 99 250 243 255 279 283 102 106 115 125 135 139 146 153 149 142 138 138 140 146 151 153 151 150 149 149 151 157 155 154 154 152 150 149 143 135 134 138 145 145 144 142 141 140 139 130 112 96
151 191 234 223 235 265 278 166 150 119 125 114 104 122 141 147 149 150 154 156 159 160 162 160 157 156 155 159 151 150 152 150 146 145 143 137 138 147 148 155 151 151 150 149 148 144 124 95 82
187 214 243 256 252 250 257 244 157 134 151 157 149 150 153 155 158 159 163 165 165 164 165 165 163 162 162 153 152 151 145 145 146 148 146 148 145 147 140 142 146 148 151 138 138 127 104 102 110
243 255 257 263 264 249 232 211 154 166 180 167 156 156 158 161 167 168 166 168 166 167 169 166 167 166 165 157 159 158 156 158 161 162 157 152 148 147 147 144 144 146 140 139 126 129 123 100 120
248 262 269 269 271 263 250 205 172 179 153 150 153 157 162 167 169 168 164 166 167 170 170 170 170 170 166 162 166 166 165 168 168 167 165 157 154 157 159 157 159 164 156 150 147 153 124 116 120
249 269 281 281 275 265 248 250 138 166 146 148 155 165 170 169 167 163 164 168 173 174 173 172 172 172 167 167 170 168 169 170 167 170 170 161 159 161 161 160 161 170 167 160 161 159 144 141 133
270 300 306 294 285 279 289 334 181 164 151 154 164 172 172 172 171 172 173 173 174 174 171 172 173 171 170 170 173 168 170 169 170 171 168 162 160 159 156 158 164 173 159 143 135 129 114 122 119
344 329 303 297 301 287 135 241 233 161 154 160 172 176 176 178 179 177 172 170 170 169 170 174 175 173 173 171 170 166 168 167 170 167 164 164 162 159 151 154 165 167 146 136 132 124 111 104 114
347 284 280 297 286 258 159 220 208 170 161 164 171 176 179 178 181 177 172 168 168 168 171 175 172 171 174 168 163 162 164 166 167 162 161 165 164 157 152 159 162 155 138 138 149 128 134 135 139
244 263 284 280 286 274 200 216 187 173 169 172 175 170 177 180 185 178 172 167 166 165 169 174 170 171 168 161 151 152 157 162 163 163 162 163 164 158 153 157 157 147 139 139 136 134 132 145 155
240 268 276 276 278 273 219 204 202 190 175 175 173 164 169 182 183 173 170 166 162 162 168 174 171 171 166 165 163 163 168 167 166 169 164 165 164 160 156 158 154 150 151 158 152 137 136 134 128
245 258 268 281 281 247 206 203 208 170 169 168 177 177 165 162 167 174 174 171 168 170 174 174 175 174 173 173 169 166 160 165 167 169 165 167 165 165 166 160 162 156 149 152 153 142 136 144 139
249 241 248 252 286 6 80 10 333 237 122 154 162 172 168 170 175 178 178 180 175 177 180 180 179 176 174 165 150 146 138 134 152 169 171 175 171 170 166 165 161 162 159 166 169 160 150 156 173
253 246 236 236 216 309 93 217 276 263 264 201 177 165 171 176 175 178 182 180 183 184 181 180 180 177 173 166 165 166 168 171 179 175 172 174 175 171 170 167 164 166 165 171 178 167 156 148 157
236 248 235 220 160 55 19 128 281 348 282 257 224 181 182 175 177 181 182 181 184 183 182 181 178 177 175 173 174 174 172 170 158 160 166 174 177 175 174 169 166 169 173 178 175 163 161 157 159
229 240 360 42 70 40 262 164 269 251 234 241 213 181 176 172 178 182 178 171 177 177 176 175 176 179 177 175 176 177 172 167 164 169 173 176 175 177 177 174 172 173 175 180 179 173 170 170 162
213 114 34 359 16 249 261 168 247 267 264 219 186 172 171 165 171 173 174 172 171 171 175 178 178 182 180 177 179 179 176 174 176 175 177 175 174 178 184 178 176 175 180 180 175 172 176 171 167
213 146 160 188 211 257 335 223 256 284 299 227 156 155 154 163 175 176 178 173 169 171 175 177 179 182 182 182 183 182 178 177 178 177 175 179 181 181 179 175 175 178 178 181 174 174 180 173 174
184 176 166 137 147 99 294 282 299 326 351 17 60 107 135 167 170 169 167 169 166 169 181 181 180 179 180 185 185 183 180 179 179 175 174 175 177 178 177 176 176 182 182 179 170 175 183 174 182
170 159 107 119 148 199 284 272 251 267 279 56 75 75 78 142 156 165 170 172 169 166 168 167 173 177 179 182 186 185 183 182 176 170 174 176 179 179 174 179 179 180 179 175 170 173 184 180 186
162 134 120 124 151 154 202 267 241 226 193 133 128 145 162 161 167 173 164 156 153 153 157 163 172 172 176 177 175 176 177 173 169 172 177 177 177 177 177 179 178 179 179 177 176 183 183 185 192
155 162 144 146 185 151 153 252 268 206 185 150 158 170 147 162 166 154 155 149 152 161 164 168 170 172 174 171 168 171 168 166 169 174 177 175 177 177 178 176 177 181 182 181 182 190 191 190 195